Total_Precipitation_Accumulation
0.00 0.00 0.00 0.00 0.00 0.03 0.07 0.06 0.14 0.11 0.12 0.16 0.11 0.10 0.09 0.09 0.08 0.07 0.03 0.01 0.01 0.00 0.00 0.00 0.00 0.00 0.00 0.00 0.00 0.00 0.00 0.00
0.00 0.00 0.00 0.00 0.00 0.00 0.11 0.14 0.11 0.10 0.14 0.24 0.22 0.16 0.16 0.13 0.16 0.12 0.08 0.04 0.02 0.01 0.01 0.01 0.00 0.00 0.00 0.00 0.00 0.00 0.00 0.00
0.00 0.00 0.00 0.00 0.00 0.00 0.05 0.14 0.13 0.11 0.10 0.16 0.20 0.16 0.25 0.33 0.27 0.30 0.24 0.15 0.10 0.07 0.05 0.03 0.00 0.00 0.00 0.00 0.00 0.00 0.00 0.00
0.00 0.00 0.00 0.00 0.00 0.00 0.01 0.05 0.08 0.08 0.08 0.10 0.12 0.08 0.10 0.11 0.21 0.31 0.22 0.14 0.10 0.07 0.05 0.04 0.00 0.00 0.00 0.00 0.00 0.00 0.00 0.01
0.00 0.00 0.00 0.00 0.00 0.00 0.02 0.02 0.03 0.04 0.04 0.04 0.04 0.06 0.04 0.03 0.07 0.13 0.19 0.25 0.13 0.14 0.09 0.05 0.05 0.06 0.04 0.01 0.00 0.00 0.00 0.02
0.00 0.00 0.00 0.00 0.00 0.00 0.01 0.05 0.04 0.01 0.01 0.06 0.07 0.07 0.07 0.05 0.05 0.06 0.08 0.16 0.19 0.29 0.24 0.21 0.21 0.17 0.09 0.04 0.12 0.03 0.01 0.03
0.00 0.00 0.00 0.00 0.00 0.00 0.00 0.03 0.06 0.08 0.06 0.06 0.07 0.10 0.10 0.11 0.06 0.07 0.05 0.09 0.12 0.15 0.15 0.20 0.26 0.32 0.24 0.20 0.14 0.12 0.07 0.09
0.00 0.00 0.00 0.00 0.00 0.00 0.00 0.00 0.02 0.08 0.08 0.06 0.15 0.16 0.15 0.18 0.13 0.11 0.08 0.09 0.13 0.14 0.11 0.11 0.13 0.21 0.23 0.23 0.15 0.13 0.10 0.08
0.00 0.00 0.00 0.00 0.00 0.00 0.00 0.00 0.00 0.01 0.05 0.06 0.08 0.18 0.18 0.21 0.22 0.16 0.10 0.08 0.11 0.12 0.12 0.12 0.10 0.11 0.15 0.21 0.21 0.20 0.13 0.07
0.00 0.00 0.00 0.00 0.00 0.00 0.00 0.00 0.00 0.00 0.01 0.02 0.05 0.06 0.14 0.20 0.27 0.24 0.25 0.19 0.15 0.09 0.07 0.10 0.10 0.09 0.11 0.15 0.22 0.21 0.15 0.06
0.00 0.00 0.00 0.00 0.00 0.00 0.00 0.00 0.00 0.00 0.00 0.01 0.04 0.08 0.19 0.26 0.22 0.26 0.33 0.29 0.22 0.15 0.08 0.06 0.07 0.08 0.10 0.13 0.20 0.18 0.20 0.18
0.00 0.00 0.00 0.00 0.00 0.00 0.00 0.00 0.00 0.00 0.00 0.00 0.02 0.04 0.18 0.38 0.42 0.32 0.34 0.30 0.24 0.23 0.19 0.15 0.13 0.09 0.07 0.08 0.16 0.26 0.26 0.24
0.00 0.00 0.00 0.00 0.00 0.00 0.00 0.00 0.00 0.00 0.00 0.00 0.00 0.01 0.10 0.51 0.71 0.68 0.45 0.34 0.25 0.26 0.28 0.26 0.30 0.37 0.39 0.25 0.15 0.24 0.28 0.28
0.00 0.00 0.00 0.00 0.00 0.00 0.00 0.00 0.00 0.00 0.00 0.00 0.00 0.00 0.03 0.13 0.52 0.90 1.15 0.85 0.57 0.40 0.41 0.41 0.63 0.87 0.89 0.60 0.41 0.42 0.31 0.29
0.00 0.00 0.00 0.00 0.00 0.00 0.00 0.00 0.00 0.00 0.00 0.00 0.00 0.00 0.01 0.05 0.32 0.62 0.65 0.82 0.96 0.99 1.07 1.06 0.93 0.90 0.96 1.16 1.08 0.75 0.59 0.39
0.00 0.00 0.00 0.00 0.00 0.00 0.00 0.00 0.01 0.01 0.02 0.01 0.00 0.00 0.01 0.03 0.11 0.23 0.60 0.83 0.57 0.71 0.58 0.77 0.99 1.12 1.33 0.96 0.64 0.52 0.45 0.41
0.00 0.00 0.00 0.00 0.00 0.00 0.00 0.01 0.02 0.02 0.02 0.02 0.01 0.01 0.00 0.02 0.05 0.08 0.24 0.45 0.52 0.55 0.37 0.28 0.31 0.40 0.42 0.73 1.09 0.92 0.52 0.28
0.00 0.00 0.00 0.00 0.00 0.00 0.01 0.02 0.01 0.02 0.03 0.03 0.02 0.02 0.02 0.02 0.02 0.05 0.12 0.44 0.65 0.52 0.78 0.71 0.49 0.38 0.40 0.53 0.43 0.41 0.50 0.58
0.00 0.00 0.00 0.00 0.00 0.00 0.01 0.02 0.02 0.02 0.03 0.04 0.03 0.03 0.03 0.04 0.02 0.03 0.07 0.22 1.02 0.89 0.75 1.10 1.34 0.94 0.72 0.55 0.53 0.47 0.32 0.27
0.00 0.00 0.00 0.01 0.00 0.01 0.02 0.02 0.02 0.03 0.03 0.04 0.05 0.07 0.08 0.05 0.03 0.03 0.06 0.13 0.39 1.21 1.03 1.04 1.56 1.75 1.46 1.19 0.85 0.85 0.85 0.71